Location: ????????
(54.6123°N, 39.2099°E)
Time: 07:25:17
(UTC+00:00)

Cosmos 1371 Rocket - Pass Details

Date: 19 May 2025
Orbit: 750 x 786 km, 74.0° (Epoch: 15 June)

Event Time Altitude Azimuth Distance (km) Brightness Sun altitude
Rises 20:53:19 0° 333° (NNW) 3,290 8.7 -15.2°
Reaches altitude 10° 20:55:45 10° 336° (NNW) 2,359 7.7 -15.2°
Maximum altitude 21:01:06 66° 59° (ENE) 863 4.3 -15.3°
Enters shadow 21:05:15 17° 139° (SE) 1,910 5.6 -15.4°
